Location: Audinghen
(50.8518°N, 1.6129°E)
Time: 21:04:30
(UTC+00:00)

ADEOS II - Pass Details

Date: 07 August 2020
Orbit: 799 x 802 km, 98.5° (Epoch: 21 September)

Event Time Altitude Azimuth Distance (km) Brightness Sun altitude
Rises 00:37:53 0° 31° (NNE) 3,322 6.5 -22.3°
Reaches altitude 10° 00:41:58 10° 62° (ENE) 2,384 5.0 -22.2°
Maximum altitude 00:43:54 12° 84° (E) 2,245 4.6 -22.1°
Drops below altitude 10° 00:45:50 10° 106° (ESE) 2,377 4.5 -22.0°
Enters shadow 00:47:26 - 121° (ESE) 2,664 4.6 -22.0°
